Temperature
12 12 12 12 13 13 13 12 12 13 12 12 12 12 12 12 12 12 12 12 12 12 12 12 12 12 12 12 12 12 12 12 12 12 12 12 12 12 11 11 11 11 11
12 12 12 12 12 12 12 12 12 12 12 12 12 12 12 12 12 12 12 12 12 12 12 12 12 12 12 12 12 12 12 12 12 12 11 11 11 11 11 11 11 11 11
12 12 12 12 12 12 12 12 12 12 12 12 12 12 12 12 12 11 11 12 11 11 11 11 11 11 11 11 11 11 11 11 11 11 11 11 11 11 11 10 10 10 10
12 12 12 12 12 12 11 11 11 12 12 11 11 11 11 11 11 11 11 11 11 11 11 11 11 11 11 11 11 11 11 11 11 11 11 11 10 10 10 10 10 10 10
12 12 12 12 11 11 11 11 11 11 11 11 11 11 11 11 11 11 11 11 11 11 11 11 11 11 11 11 11 11 11 10 10 10 10 10 10 10 10 10 10 9 9
11 11 11 11 11 11 11 11 11 11 11 11 11 10 10 10 10 10 10 10 10 10 10 10 10 10 10 10 10 10 10 10 10 10 10 10 10 9 9 9 9 9 9
11 11 11 11 11 11 11 11 10 10 10 10 10 10 9 9 10 10 10 10 10 10 10 10 10 10 10 10 10 10 10 10 10 10 10 9 9 9 9 9 9 8 8
11 11 11 11 11 11 10 10 10 10 10 10 10 9 9 9 9 9 9 9 10 10 10 10 10 10 10 10 9 10 10 9 9 9 9 9 9 9 8 8 8 8 8
11 11 11 11 10 10 10 10 10 10 10 10 10 10 9 9 8 9 9 9 9 9 9 9 9 9 9 9 9 9 9 9 9 9 9 8 8 8 8 8 8 7 7
10 10 10 10 10 10 10 10 10 10 10 10 9 9 10 9 9 9 8 9 9 9 9 9 9 9 9 9 9 9 9 9 8 8 8 8 8 8 8 7 7 7 7
10 10 10 10 10 10 10 10 9 9 9 9 9 9 9 9 9 9 8 8 8 9 9 9 9 9 8 8 8 8 8 8 8 8 8 7 7 7 7 7 7 7 7
10 9 9 9 9 9 9 9 9 9 9 9 9 9 9 9 9 9 9 8 8 8 8 8 8 8 8 8 8 8 8 7 7 7 7 7 7 7 6 6 6 6 6
9 9 9 9 9 9 9 9 9 9 9 9 9 9 9 9 9 9 9 8 8 8 8 8 8 8 7 7 7 7 7 7 7 7 7 6 6 6 6 6 6 6 6
9 9 9 9 9 9 9 9 9 9 9 9 9 9 8 8 8 8 8 8 8 7 7 7 7 7 7 7 7 7 7 6 6 6 6 6 6 6 6 6 5 5 5
9 9 8 9 9 9 9 9 9 8 8 8 8 8 8 8 8 8 8 8 8 7 7 7 7 7 7 7 6 6 6 6 6 6 6 6 6 5 5 5 5 5 5
8 8 8 8 8 8 8 8 8 8 8 8 8 8 8 8 7 7 7 7 7 7 7 7 6 6 6 6 6 6 6 6 6 5 5 5 5 5 5 5 4 4 4
8 8 8 8 8 8 8 8 8 8 7 7 7 7 7 7 7 7 7 7 6 6 6 6 6 6 6 6 6 6 5 5 5 5 5 5 5 5 5 4 4 4 4
7 7 7 7 7 7 7 7 7 7 7 7 7 7 7 6 6 7 6 6 6 6 6 6 6 5 5 5 5 5 5 5 5 4 4 4 4 4 4 4 4 3 3
7 7 7 7 7 7 7 7 7 7 7 6 6 6 6 6 6 6 6 6 6 5 5 5 5 5 5 5 5 5 4 4 4 4 4 4 4 4 3 3 3 3 3
6 6 6 6 6 6 6 6 6 6 6 6 6 6 6 6 6 5 5 5 5 5 5 5 4 4 4 4 4 4 4 4 4 4 3 3 3 3 3 3 3 3 2
5 6 6 6 6 6 6 6 6 6 6 5 5 5 5 5 5 5 5 5 5 4 4 4 4 4 4 4 3 3 3 3 3 3 3 3 3 3 3 3 2 2 2
5 5 5 5 5 5 5 5 5 5 5 5 5 5 5 5 4 4 4 4 4 4 4 4 4 3 3 3 3 2 2 2 3 3 2 3 2 2 2 2 2 2 2
4 5 4 4 4 5 5 5 5 5 5 4 4 4 4 4 4 4 4 4 3 3 3 3 3 3 3 3 2 2 2 2 2 2 2 2 2 2 2 2 2 1 1
4 4 4 4 4 4 4 4 4 4 4 4 4 4 4 4 3 3 3 3 3 3 3 3 2 2 2 2 2 2 1 1 1 1 1 1 2 1 2 2 1 1 1
3 3 3 3 3 3 3 3 3 3 3 3 3 3 3 3 3 3 3 3 3 2 2 2 2 2 1 1 1 1 1 1 1 1 1 0 0 0 1 1 1 0 0
2 3 3 3 3 3 3 3 3 3 3 3 3 3 2 2 2 2 2 2 2 2 2 2 2 1 1 1 1 1 0 0 0 -0 -0 -1 -1 -1 -1 -0 0 0 -0
Wind_Speed
6 6 6 7 6 7 7 6 7 7 7 8 8 9 8 8 8 8 8 9 9 9 9 9 9 9 9 8 8 8 7 7 7 6 7 7 7 7 7 7 7 8 8
8 7 6 6 6 7 7 7 7 6 6 7 7 8 8 8 8 8 8 8 8 8 8 8 7 7 8 8 8 7 7 6 6 6 6 6 6 6 6 6 6 6 7
10 8 6 5 6 8 8 7 7 7 5 6 5 6 7 8 8 8 8 8 7 7 7 8 7 7 7 7 7 6 6 5 5 5 5 5 5 5 5 5 5 5 6
11 9 6 5 7 8 8 5 5 4 4 4 4 4 5 6 7 8 8 8 7 6 6 6 6 6 6 5 5 5 5 4 4 4 4 4 4 4 4 5 5 4 5
12 10 7 6 9 7 5 5 4 4 5 4 4 4 4 4 5 6 7 7 7 7 6 6 6 5 5 4 4 4 4 4 4 4 3 3 3 2 2 3 3 3 4
12 10 7 7 9 6 4 4 4 4 4 5 5 5 4 3 4 4 4 5 6 6 6 6 5 5 4 3 3 3 3 3 3 3 2 2 1 0 0 1 1 2 3
11 10 7 7 7 6 6 6 5 5 4 5 4 4 4 4 3 2 3 4 4 4 4 4 4 5 4 4 3 3 3 2 2 2 1 0 1 1 1 1 1 2 3
11 10 8 7 7 6 6 6 6 4 3 4 4 4 1 1 2 2 1 2 2 3 3 3 4 5 5 4 4 4 3 1 1 1 1 1 1 2 2 2 2 2 3
10 9 9 8 7 7 7 7 7 6 5 3 3 4 4 3 1 1 1 1 1 2 2 2 4 5 5 4 4 3 3 2 1 1 1 1 2 2 2 3 3 3 4
9 9 9 9 8 7 7 7 6 5 7 5 2 1 2 4 3 1 1 1 0 1 1 2 2 3 3 3 3 3 3 2 1 1 1 2 2 2 3 3 3 4 4
7 8 9 8 8 7 7 7 6 5 5 5 4 2 2 2 2 3 2 1 1 1 1 1 2 3 2 3 3 2 2 1 1 2 2 2 2 3 3 4 4 4 4
4 6 7 7 7 7 7 7 7 7 6 5 4 4 4 3 3 3 3 2 2 1 1 1 2 2 2 2 2 1 1 1 2 3 3 3 3 3 4 4 5 5 5
4 5 5 6 6 6 7 7 6 7 7 7 6 4 4 3 3 3 4 2 1 1 1 0 2 2 2 2 2 2 1 2 2 3 3 4 4 4 4 5 5 6 6
5 5 6 6 6 6 6 6 5 6 6 6 6 5 3 3 3 4 4 4 2 1 1 2 1 2 2 1 1 2 1 1 2 3 3 4 4 5 4 4 5 6 6
4 6 6 6 5 5 5 6 4 5 5 5 5 5 4 3 3 3 4 4 5 3 4 3 2 2 2 2 1 1 0 1 2 2 3 3 4 4 5 5 5 6 7
5 6 6 5 5 5 5 5 4 4 5 4 4 5 4 3 3 3 3 2 3 4 4 3 3 2 2 1 1 1 2 3 3 3 3 4 4 4 5 5 5 6 7
5 6 7 6 6 5 5 5 5 5 5 5 4 5 5 4 4 3 3 2 2 2 3 2 1 2 2 2 2 2 3 4 4 4 5 5 5 5 6 6 7 7 7
5 6 6 6 6 6 6 6 6 6 6 6 5 5 5 4 4 3 3 4 3 3 3 3 2 2 2 3 2 2 3 4 5 6 6 6 6 7 7 7 7 8 8
6 6 6 6 6 6 6 6 6 6 6 6 6 6 5 5 5 4 4 4 3 3 3 3 2 2 1 2 2 2 2 3 5 6 7 7 7 8 8 8 8 8 8
6 6 6 6 6 6 6 6 6 5 5 5 5 5 6 6 7 6 5 5 4 4 3 3 2 2 1 2 1 2 2 2 3 5 6 7 8 9 9 9 9 9 9
5 5 5 5 5 5 5 6 5 5 5 4 4 4 4 5 6 6 5 5 5 4 3 3 2 2 2 2 2 2 3 3 3 2 2 5 6 6 8 9 9 9 10
5 5 5 5 5 4 6 7 6 5 5 5 4 3 3 4 5 6 7 7 7 6 5 4 3 4 4 3 3 2 2 2 3 2 1 4 4 4 6 8 10 11 10
4 5 5 5 4 4 6 7 7 5 5 4 4 4 3 3 4 4 5 5 5 6 7 6 6 6 5 5 4 4 3 3 4 3 1 4 3 4 7 10 11 10 10
4 4 4 4 4 3 5 5 6 4 4 3 4 4 4 4 4 5 4 3 3 4 5 4 5 5 5 5 5 4 4 2 2 2 2 3 3 3 6 9 10 9 9
3 3 3 4 4 3 4 4 4 3 3 2 2 3 4 4 5 5 4 3 3 2 3 4 5 5 5 5 4 2 2 2 3 3 1 1 2 3 4 4 7 7 8
3 3 3 3 3 2 4 4 5 3 3 2 1 2 4 4 5 5 4 4 4 3 2 1 1 2 2 3 4 5 4 3 2 2 2 1 2 2 3 3 4 6 8
Wind_Direction
148 147 145 145 142 137 131 126 122 119 116 116 118 117 115 115 115 112 116 124 126 126 124 120 119 116 112 110 106 101 103 100 95 98 101 98 94 89 83 75 70 66 61
155 151 145 145 143 143 140 132 128 124 118 116 115 118 119 119 118 114 114 118 124 125 127 126 120 120 118 114 112 107 102 98 94 94 101 105 101 95 86 76 68 64 56
158 153 149 150 149 145 135 124 117 115 113 113 112 117 120 118 117 116 116 115 115 118 125 126 123 120 118 116 115 110 107 103 100 98 99 102 100 96 88 76 71 65 55
160 153 150 154 151 143 133 127 124 121 117 114 112 111 115 118 116 119 119 119 118 115 115 118 122 119 121 118 117 115 105 107 106 103 100 98 97 91 85 75 69 59 48
163 155 152 153 150 140 134 140 137 132 127 116 109 95 93 104 112 118 117 122 123 121 118 115 115 112 117 123 117 113 110 106 100 96 101 98 100 95 86 75 62 48 35
164 156 150 154 150 145 145 142 140 129 131 126 109 82 62 63 87 105 118 121 123 125 127 124 115 112 109 112 107 109 108 101 100 97 92 96 104 138 88 69 38 20 11
165 157 154 156 154 159 161 152 142 136 126 121 104 80 42 41 60 74 105 112 112 122 125 127 124 119 108 96 88 92 96 93 92 93 89 77 247 266 283 306 332 349 351
167 165 162 165 161 160 160 158 148 144 151 149 132 126 110 8 6 36 59 112 116 111 114 130 129 125 120 105 98 91 84 94 85 55 24 355 308 283 285 288 297 315 323
169 170 171 166 166 168 174 174 167 159 168 179 157 146 152 192 237 347 22 63 105 113 111 128 133 135 127 117 110 102 83 82 35 342 355 4 350 315 304 303 303 314 322
171 173 173 170 169 171 177 182 177 170 166 175 173 143 144 144 154 170 333 347 46 129 150 131 132 139 127 120 113 101 91 88 12 331 345 352 340 335 343 338 326 326 327
176 173 173 173 172 174 178 179 177 171 172 173 169 153 125 107 124 149 191 235 307 276 215 166 139 130 115 112 111 101 88 61 355 340 332 330 338 344 343 344 343 334 330
179 176 173 176 177 176 180 183 181 179 180 173 170 164 162 159 168 159 173 193 207 265 278 164 150 137 115 107 101 86 82 32 351 347 336 329 337 341 339 341 340 341 335
183 185 175 178 178 180 181 177 176 182 181 179 180 180 179 174 159 154 153 164 189 255 290 299 190 165 136 104 98 100 82 51 15 354 354 354 353 347 341 336 332 331 331
184 176 173 176 176 174 178 174 174 179 176 179 182 176 174 175 163 162 159 155 157 253 262 245 239 196 170 138 149 132 83 34 4 345 344 347 342 349 341 335 331 324 320
168 167 170 170 171 171 173 169 174 174 171 178 180 178 179 179 166 162 155 163 167 196 231 225 220 211 199 176 200 162 282 295 314 316 327 333 332 335 329 323 324 324 321
166 165 169 168 169 169 168 163 162 162 165 175 175 173 185 180 166 159 161 167 171 180 213 217 215 203 195 211 237 239 268 281 296 300 305 315 317 318 321 319 319 319 318
166 169 173 171 172 172 168 169 168 163 170 176 179 180 193 184 175 171 163 163 170 168 199 231 188 184 182 192 255 259 266 271 283 290 290 295 302 308 312 313 312 309 309
166 169 167 168 171 171 170 174 176 174 177 182 186 183 193 182 179 179 174 180 189 184 181 201 206 200 210 203 205 232 259 265 273 277 282 283 288 297 300 299 299 301 305
164 163 165 171 172 173 174 180 180 180 183 185 186 187 190 179 187 187 186 190 191 182 171 183 216 210 223 200 202 243 265 272 276 277 276 274 282 290 292 293 294 297 299
163 166 169 171 171 172 176 178 175 176 180 181 183 187 189 190 194 191 193 193 182 173 164 175 201 211 217 216 202 238 275 274 277 285 273 279 282 285 288 290 291 293 295
156 160 160 161 163 170 177 173 174 176 175 174 176 184 190 192 193 191 192 188 180 180 176 184 199 208 216 207 227 230 264 282 277 256 266 281 283 283 287 289 290 292 294
152 149 154 161 168 180 177 174 172 174 174 178 185 187 188 188 188 189 191 189 187 186 190 196 208 216 231 228 227 230 247 284 278 250 254 279 267 267 279 288 290 291 291
148 147 154 158 167 177 174 175 176 173 177 187 189 187 189 188 186 187 186 186 195 198 200 199 207 223 224 219 211 225 233 244 257 256 269 276 269 270 281 287 288 286 288
148 152 156 160 164 169 164 168 169 168 173 188 193 190 187 186 187 179 174 184 204 215 213 210 216 224 219 213 208 217 225 248 283 272 227 261 280 277 292 288 283 280 289
136 137 147 146 152 155 155 161 159 156 167 187 191 182 182 182 187 182 177 188 211 236 229 225 233 238 243 237 217 173 185 219 279 276 218 235 278 301 291 278 277 284 295
134 135 129 136 152 159 164 163 160 154 160 169 167 180 184 186 189 185 186 190 210 231 223 245 269 256 244 229 219 205 202 221 261 265 224 229 267 318 304 278 276 286 293
Height
1537 1539 1541 1543 1545 1547 1549 1551 1552 1554 1555 1557 1559 1561 1562 1563 1565 1566 1567 1568 1569 1569 1570 1570 1571 1571 1571 1571 1571 1571 1571 1571 1571 1571 1571 1570 1570 1570 1570 1569 1569 1568 1567
1536 1538 1540 1542 1544 1546 1548 1550 1551 1553 1555 1556 1558 1560 1561 1563 1564 1565 1566 1567 1568 1569 1569 1570 1570 1570 1571 1571 1571 1571 1571 1570 1570 1570 1570 1570 1570 1569 1569 1569 1568 1568 1567
1535 1536 1538 1540 1543 1545 1546 1548 1550 1552 1554 1556 1557 1559 1561 1562 1563 1565 1566 1567 1567 1568 1569 1569 1569 1570 1570 1570 1570 1570 1570 1570 1570 1570 1569 1569 1569 1569 1568 1568 1567 1567 1566
1533 1535 1537 1539 1541 1543 1545 1547 1549 1551 1552 1554 1556 1558 1559 1561 1562 1564 1565 1565 1566 1567 1568 1568 1569 1569 1569 1569 1569 1569 1569 1569 1569 1568 1568 1568 1568 1568 1567 1567 1566 1566 1565
1531 1533 1535 1537 1540 1542 1544 1546 1548 1549 1551 1553 1555 1557 1558 1560 1561 1562 1563 1564 1565 1566 1566 1567 1567 1568 1568 1568 1568 1568 1568 1568 1567 1567 1567 1567 1567 1567 1566 1565 1565 1564 1563
1528 1530 1533 1535 1537 1540 1541 1544 1546 1548 1550 1552 1553 1555 1557 1558 1560 1561 1562 1563 1564 1565 1565 1566 1566 1567 1567 1567 1567 1567 1567 1566 1566 1566 1566 1565 1565 1565 1564 1564 1563 1563 1562
1525 1528 1530 1532 1535 1537 1539 1541 1544 1546 1548 1550 1552 1554 1556 1557 1558 1559 1560 1561 1562 1563 1564 1564 1565 1565 1565 1565 1565 1565 1565 1565 1564 1564 1564 1563 1563 1563 1562 1562 1561 1561 1560
1523 1525 1527 1529 1532 1534 1537 1539 1541 1543 1545 1548 1549 1551 1554 1557 1556 1557 1558 1559 1560 1561 1562 1562 1563 1563 1563 1563 1563 1563 1563 1563 1563 1562 1562 1562 1561 1560 1560 1559 1559 1558 1557
1519 1522 1524 1527 1529 1531 1533 1535 1538 1540 1542 1545 1547 1549 1551 1551 1553 1555 1556 1557 1558 1559 1560 1560 1561 1561 1561 1561 1561 1561 1561 1561 1561 1560 1560 1559 1559 1558 1557 1557 1556 1555 1555
1516 1518 1521 1523 1525 1528 1530 1533 1535 1538 1540 1541 1544 1546 1548 1548 1550 1551 1554 1555 1555 1556 1557 1558 1558 1558 1559 1559 1559 1559 1559 1559 1558 1558 1557 1557 1556 1556 1555 1554 1553 1553 1552
1512 1515 1518 1520 1522 1525 1527 1530 1532 1535 1537 1538 1540 1542 1544 1546 1547 1548 1549 1552 1553 1554 1554 1555 1555 1556 1556 1556 1557 1556 1556 1556 1556 1555 1555 1554 1554 1553 1552 1551 1550 1549 1548
1509 1511 1514 1516 1519 1521 1524 1526 1529 1531 1533 1535 1537 1539 1541 1542 1544 1545 1546 1548 1549 1551 1552 1552 1553 1553 1553 1554 1554 1554 1554 1553 1553 1552 1552 1551 1551 1550 1549 1548 1547 1546 1545
1505 1507 1510 1513 1515 1518 1521 1523 1525 1527 1530 1532 1534 1535 1538 1539 1541 1543 1544 1545 1546 1548 1548 1549 1550 1550 1551 1551 1551 1551 1551 1550 1550 1550 1549 1548 1547 1546 1546 1545 1544 1543 1542
1502 1504 1507 1510 1512 1515 1517 1519 1521 1524 1526 1528 1530 1532 1534 1536 1538 1539 1541 1542 1543 1544 1545 1545 1546 1547 1547 1548 1548 1548 1547 1547 1547 1546 1546 1545 1544 1543 1542 1541 1540 1539 1538
1499 1501 1504 1506 1509 1512 1514 1516 1517 1520 1522 1525 1526 1528 1530 1532 1534 1536 1537 1539 1540 1540 1540 1542 1543 1543 1544 1544 1544 1544 1544 1544 1544 1543 1542 1541 1540 1539 1538 1538 1536 1535 1534
1495 1498 1500 1503 1506 1508 1510 1513 1514 1516 1519 1520 1523 1524 1526 1528 1530 1531 1533 1535 1536 1537 1536 1537 1538 1539 1540 1540 1540 1541 1541 1540 1540 1539 1538 1537 1537 1536 1535 1533 1532 1531 1530
1492 1494 1497 1499 1502 1504 1507 1509 1510 1512 1514 1517 1519 1521 1522 1524 1525 1527 1529 1530 1531 1532 1532 1532 1534 1535 1536 1536 1536 1537 1537 1536 1536 1535 1534 1534 1533 1532 1531 1529 1528 1527 1526
1488 1491 1493 1496 1498 1501 1503 1505 1507 1509 1511 1512 1514 1516 1518 1519 1521 1523 1524 1526 1527 1528 1529 1528 1530 1531 1532 1532 1532 1532 1532 1532 1532 1531 1530 1530 1529 1528 1527 1525 1524 1523 1521
1485 1488 1490 1492 1495 1497 1500 1502 1504 1505 1507 1509 1510 1512 1514 1515 1516 1518 1520 1522 1523 1524 1525 1525 1526 1527 1527 1528 1528 1528 1528 1528 1527 1527 1526 1526 1525 1524 1522 1521 1519 1518 1517
1482 1485 1487 1489 1492 1494 1496 1499 1500 1502 1503 1505 1507 1508 1510 1511 1513 1515 1516 1518 1519 1520 1521 1521 1522 1522 1523 1523 1524 1523 1523 1523 1523 1523 1522 1521 1520 1519 1518 1517 1515 1514 1512
1479 1482 1484 1486 1489 1491 1493 1495 1497 1498 1500 1501 1503 1505 1507 1508 1510 1511 1512 1513 1515 1515 1516 1517 1517 1518 1518 1519 1519 1518 1518 1518 1518 1518 1517 1517 1516 1515 1514 1512 1511 1509 1507
1476 1479 1481 1483 1485 1487 1490 1492 1494 1495 1497 1498 1500 1502 1503 1505 1506 1507 1508 1509 1511 1511 1512 1512 1513 1514 1514 1515 1515 1514 1514 1513 1512 1513 1512 1512 1511 1510 1509 1507 1506 1504 1503
1473 1475 1478 1480 1482 1485 1487 1489 1490 1492 1493 1495 1497 1498 1499 1501 1502 1503 1504 1505 1506 1507 1508 1509 1509 1509 1510 1510 1510 1510 1510 1509 1509 1508 1507 1506 1506 1504 1504 1502 1501 1499 1498
1471 1473 1475 1478 1480 1482 1484 1486 1487 1489 1490 1492 1493 1494 1496 1497 1498 1499 1500 1501 1502 1503 1504 1505 1505 1505 1506 1506 1506 1506 1505 1505 1505 1504 1503 1501 1499 1499 1498 1497 1496 1494 1493
1469 1471 1473 1475 1477 1479 1481 1483 1484 1485 1487 1488 1490 1491 1492 1493 1495 1496 1496 1497 1498 1499 1500 1500 1501 1501 1501 1501 1501 1501 1500 1500 1498 1498 1498 1496 1494 1492 1491 1491 1490 1489 1487
1467 1469 1470 1472 1474 1475 1478 1479 1481 1482 1483 1485 1486 1487 1489 1490 1491 1492 1492 1493 1493 1494 1495 1495 1496 1496 1496 1496 1496 1496 1495 1495 1493 1493 1493 1492 1490 1488 1485 1484 1484 1483 1482